,,Stat1,,Stat2,,Stat3,,Stat4,,Wind1,,Wind1,
time,status,PR1M_SUM,status,RH1M_AVG,status,SR1M_AVG,status,TA1M_AVG,status,W1dAve1m,status,W1sAve1m,
2000-03-04, 00:00:01,VALID,0,VALID,88.1756,VALID,0.0339617,VALID,18.1392,VALID,140,VALID,0.104441,
2000-03-04, 00:01:00,VALID,0,VALID,88.2595,VALID,0.0339617,VALID,18.0711,VALID,140,VALID,0,
2000-03-04, 00:02:00,VALID,0,VALID,88.9513,VALID,0,VALID,18.0031,VALID,140,VALID,0,
2000-03-04, 00:03:00,VALID,0,VALID,89.1738,VALID,0.0339617,VALID,17.9775,VALID,140,VALID,0,
2000-03-04, 00:04:00,VALID,0,VALID,88.8699,VALID,0.0339617,VALID,17.9837,VALID,140,VALID,0.106337,
2000-03-04, 00:05:00,VALID,0,VALID,88.9424,VALID,0.0339617,VALID,18.0262,VALID,140,VALID,0.146326,
2000-03-04, 00:06:00,VALID,0,VALID,88.5164,VALID,0.0169808,VALID,18.0774,VALID,140,VALID,0.0316506,
2000-03-04, 00:07:00,VALID,0,VALID,87.9607,VALID,0,VALID,18.1036,VALID,140,VALID,0,
2000-03-04, 00:08:00,VALID,0,VALID,88.2417,VALID,0.0169808,VALID,18.1159,VALID,128,VALID,0.0361842,
2000-03-04, 00:09:00,VALID,0,VALID,88.3002,VALID,0.0169808,VALID,18.1417,VALID,87,VALID,0.151042,
2000-03-04, 00:10:00,VALID,0,VALID,88.2328,VALID,0.0509425,VALID,18.171,VALID,87,VALID,0.0598273,
2000-03-04, 00:11:00,VALID,0,VALID,87.6072,VALID,0.0679233,VALID,18.1841,VALID,96,VALID,0,
2000-03-04, 00:12:00,VALID,0,VALID,87.4711,VALID,0.0339617,VALID,18.1807,VALID,83,VALID,0.141827,
2000-03-04, 00:13:00,VALID,0,VALID,87.5233,VALID,0.0169808,VALID,18.1839,VALID,93,VALID,0.157728,
2000-03-04, 00:14:00,VALID,0,VALID,87.2893,VALID,0.0339617,VALID,18.1871,VALID,91,VALID,0.255078,
2000-03-04, 00:15:00,VALID,0,VALID,87.2448,VALID,0.0169808,VALID,18.1544,VALID,126,VALID,0.266242,
2000-03-04, 00:16:00,VALID,0,VALID,88.2048,VALID,0.0509425,VALID,18.1002,VALID,126,VALID,0.165296,
2000-03-04, 00:17:00,VALID,0,VALID,87.8335,VALID,0.0849042,VALID,18.0647,VALID,126,VALID,0.192779,
2000-03-04, 00:18:00,VALID,0,VALID,88.0039,VALID,0.0849042,VALID,18.0292,VALID,126,VALID,0.0149916,
2000-03-04, 00:19:00,VALID,0,VALID,88.5011,VALID,0.0679233,VALID,17.9747,VALID,131,VALID,0.0578125,
2000-03-04, 00:20:00,VALID,0,VALID,88.8483,VALID,0,VALID,17.9224,VALID,165,VALID,0.309095,
2000-03-04, 00:21:00,VALID,0,VALID,89.4637,VALID,0.0509425,VALID,17.9063,VALID,178,VALID,0.227796,
2000-03-04, 00:22:00,VALID,0,VALID,89.451,VALID,0.0339617,VALID,17.9231,VALID,178,VALID,0.0232372,
2000-03-04, 00:23:00,VALID,0,VALID,89.142,VALID,0.0679233,VALID,17.974,VALID,170,VALID,0.106908,
2000-03-04, 00:24:00,VALID,0,VALID,88.627,VALID,0.0169808,VALID,18.0774,VALID,165,VALID,0.190584,
2000-03-04, 00:25:00,VALID,0,VALID,88.2125,VALID,0,VALID,18.1458,VALID,165,VALID,0,
2000-03-04, 00:26:00,VALID,0,VALID,88.0929,VALID,0.0169808,VALID,18.174,VALID,165,VALID,0,
2000-03-04, 00:27:00,VALID,0,VALID,87.7611,VALID,0.0169808,VALID,18.2358,VALID,131,VALID,0.0806641,
2000-03-04, 00:28:00,VALID,0,VALID,86.9167,VALID,0.0169808,VALID,18.3619,VALID,105,VALID,0,
2000-03-04, 00:29:00,VALID,0,VALID,86.155,VALID,0.0339617,VALID,18.4328,VALID,108,VALID,0,
2000-03-04, 00:30:00,VALID,0,VALID,85.3425,VALID,0.0339617,VALID,18.4385,VALID,108,VALID,0,
2000-03-04, 00:31:00,VALID,0,VALID,85.8511,VALID,0.0169808,VALID,18.4231,VALID,119,VALID,0,
2000-03-04, 00:32:00,VALID,0,VALID,86.6471,VALID,0,VALID,18.3649,VALID,125,VALID,0,
2000-03-04, 00:33:00,VALID,0,VALID,86.8786,VALID,0.0169808,VALID,18.3361,VALID,125,VALID,0,
2000-03-04, 00:34:00,VALID,0,VALID,86.7311,VALID,0,VALID,18.3001,VALID,125,VALID,0,
2000-03-04, 00:35:00,VALID,0,VALID,86.1779,VALID,0.0169808,VALID,18.2584,VALID,124,VALID,0,
2000-03-04, 00:36:00,VALID,0,VALID,86.1805,VALID,0.0509425,VALID,18.2422,VALID,124,VALID,0,
2000-03-04, 00:37:00,VALID,0,VALID,86.5937,VALID,0.0339617,VALID,18.207,VALID,124,VALID,0,
2000-03-04, 00:38:00,VALID,0,VALID,85.9198,VALID,0,VALID,18.1811,VALID,124,VALID,0,
2000-03-04, 00:39:00,VALID,0,VALID,87.3898,VALID,0,VALID,18.1588,VALID,135,VALID,0,
2000-03-04, 00:40:00,VALID,0,VALID,87.7471,VALID,0.0509425,VALID,18.1357,VALID,155,VALID,0,
2000-03-04, 00:41:00,VALID,0,VALID,88.0294,VALID,0.0679233,VALID,18.1357,VALID,155,VALID,0,
2000-03-04, 00:42:00,VALID,0,VALID,87.948,VALID,0.0509425,VALID,18.1514,VALID,155,VALID,0,
2000-03-04, 00:43:00,VALID,0,VALID,85.8969,VALID,0.0169808,VALID,18.216,VALID,124,VALID,0,
2000-03-04, 00:44:00,VALID,0,VALID,85.5586,VALID,0.0169808,VALID,18.2358,VALID,90,VALID,0,
2000-03-04, 00:45:00,VALID,0,VALID,86.876,VALID,0.0679233,VALID,18.2485,VALID,95,VALID,0,
2000-03-04, 00:46:00,VALID,0,VALID,86.9065,VALID,0.0509425,VALID,18.3098,VALID,95,VALID,0,
2000-03-04, 00:47:00,VALID,0,VALID,84.6711,VALID,0.0339617,VALID,18.3583,VALID,132,VALID,0.00308388,
2000-03-04, 00:48:00,VALID,0,VALID,86.0101,VALID,0.0339617,VALID,18.3553,VALID,184,VALID,0.102385,
2000-03-04, 00:49:00,VALID,0,VALID,86.7883,VALID,0.0339617,VALID,18.3712,VALID,235,VALID,0.334248,
2000-03-04, 00:50:00,VALID,0,VALID,86.6789,VALID,0.0169808,VALID,18.4263,VALID,244,VALID,0.266258,
2000-03-04, 00:51:00,VALID,0,VALID,86.3318,VALID,0.0339617,VALID,18.4745,VALID,244,VALID,0.236328,
2000-03-04, 00:52:00,VALID,0,VALID,86.2237,VALID,0.0169808,VALID,18.5264,VALID,244,VALID,0,
2000-03-04, 00:53:00,VALID,0,VALID,83.9081,VALID,0,VALID,18.5654,VALID,222,VALID,0,
2000-03-04, 00:54:00,VALID,0,VALID,86.122,VALID,0.0679233,VALID,18.4715,VALID,217,VALID,0,
2000-03-04, 00:55:00,VALID,0,VALID,87.3046,VALID,0.0679233,VALID,18.3486,VALID,192,VALID,0,
2000-03-04, 00:56:00,VALID,0,VALID,87.7674,VALID,0.0509425,VALID,18.2842,VALID,192,VALID,0,
2000-03-04, 00:57:00,VALID,0,VALID,87.7967,VALID,0.0169808,VALID,18.2549,VALID,192,VALID,0,
2000-03-04, 00:58:00,VALID,0,VALID,87.5258,VALID,0.0509425,VALID,18.2904,VALID,192,VALID,0,
2000-03-04, 00:59:00,VALID,0,VALID,87.0973,VALID,0.0509425,VALID,18.3806,VALID,192,VALID,0,
2000-03-04, 01:00:00,VALID,0,VALID,86.6293,VALID,0.0509425,VALID,18.4874,VALID,193,VALID,0,
2000-03-04, 01:01:00,VALID,0,VALID,86.3318,VALID,0.0339617,VALID,18.5587,VALID,193,VALID,0,
2000-03-04, 01:02:00,VALID,0,VALID,86.1296,VALID,0.0169808,VALID,18.5937,VALID,193,VALID,0,
2000-03-04, 01:03:00,VALID,0,VALID,85.9935,VALID,0.0679233,VALID,18.6293,VALID,193,VALID,0,
2000-03-04, 01:04:00,VALID,0,VALID,85.607,VALID,0.0679233,VALID,18.6878,VALID,193,VALID,0,
2000-03-04, 01:05:00,VALID,0,VALID,85.2471,VALID,0.0339617,VALID,18.7485,VALID,192,VALID,0,
2000-03-04, 01:06:00,VALID,0,VALID,85.0436,VALID,0.0849042,VALID,18.7748,VALID,185,VALID,0,
2000-03-04, 01:07:00,VALID,0,VALID,85.3704,VALID,0.0509425,VALID,18.7261,VALID,178,VALID,0,
2000-03-04, 01:08:00,VALID,0,VALID,86.3687,VALID,0.0679233,VALID,18.5612,VALID,175,VALID,0,
2000-03-04, 01:09:00,VALID,0,VALID,87.152,VALID,0.0339617,VALID,18.3972,VALID,174,VALID,0,
2000-03-04, 01:10:00,VALID,0,VALID,87.7776,VALID,0.0679233,VALID,18.3068,VALID,174,VALID,0,
2000-03-04, 01:11:00,VALID,0,VALID,87.4635,VALID,-0.0509425,VALID,18.2526,VALID,170,VALID,0,
2000-03-04, 01:12:00,VALID,0,VALID,87.653,VALID,-0.101885,VALID,18.1433,VALID,169,VALID,0,
2000-03-04, 01:13:00,VALID,0,VALID,88.8356,VALID,-0.0679233,VALID,17.9461,VALID,161,VALID,0,
2000-03-04, 01:14:00,VALID,0,VALID,89.8999,VALID,-0.101885,VALID,17.8172,VALID,154,VALID,0,
2000-03-04, 01:15:00,VALID,0,VALID,89.6837,VALID,-0.0339617,VALID,17.8204,VALID,154,VALID,0,
2000-03-04, 01:16:00,VALID,0,VALID,89.6507,VALID,-0.0339617,VALID,17.814,VALID,154,VALID,0,
2000-03-04, 01:17:00,VALID,0,VALID,89.8516,VALID,-0.0849042,VALID,17.8013,VALID,154,VALID,0,
2000-03-04, 01:18:00,VALID,0,VALID,90.2089,VALID,-0.0509425,VALID,17.7686,VALID,154,VALID,0,
2000-03-04, 01:19:00,VALID,0,VALID,90.4073,VALID,-0.0679233,VALID,17.7492,VALID,154,VALID,0,
2000-03-04, 01:20:00,VALID,0,VALID,90.1606,VALID,-0.0509425,VALID,17.7912,VALID,154,VALID,0,
2000-03-04, 01:21:00,VALID,0,VALID,89.6596,VALID,-0.0339617,VALID,17.843,VALID,154,VALID,0,
2000-03-04, 01:22:00,VALID,0,VALID,89.3048,VALID,-0.0509425,VALID,17.8981,VALID,154,VALID,0,
2000-03-04, 01:23:00,VALID,0,VALID,89.1687,VALID,-0.0849042,VALID,17.9466,VALID,154,VALID,0,
2000-03-04, 01:24:00,VALID,0,VALID,88.7656,VALID,-0.0849042,VALID,18.0141,VALID,154,VALID,0,
2000-03-04, 01:25:00,VALID,0,VALID,88.1883,VALID,-0.0679233,VALID,18.1272,VALID,154,VALID,0,
2000-03-04, 01:26:00,VALID,0,VALID,87.6301,VALID,0.0339617,VALID,18.2455,VALID,154,VALID,0,
2000-03-04, 01:27:00,VALID,0,VALID,87.1291,VALID,0.0169808,VALID,18.352,VALID,154,VALID,0,
2000-03-04, 01:28:00,VALID,0,VALID,86.6026,VALID,0,VALID,18.4618,VALID,154,VALID,0,
2000-03-04, 01:29:00,VALID,0,VALID,86.0266,VALID,0.0169808,VALID,18.555,VALID,155,VALID,0,
2000-03-04, 01:30:00,VALID,0,VALID,85.6807,VALID,0,VALID,18.6007,VALID,161,VALID,0,
2000-03-04, 01:31:00,VALID,0,VALID,86.1309,VALID,0.0169808,VALID,18.5716,VALID,165,VALID,0,
2000-03-04, 01:32:00,VALID,0,VALID,86.8023,VALID,0.0169808,VALID,18.4909,VALID,192,VALID,0,
2000-03-04, 01:33:00,VALID,0,VALID,87.0197,VALID,0.0509425,VALID,18.4101,VALID,193,VALID,0,
2000-03-04, 01:34:00,VALID,0,VALID,87.255,VALID,0,VALID,18.3709,VALID,193,VALID,0,
2000-03-04, 01:35:00,VALID,0,VALID,87.4126,VALID,0.0169808,VALID,18.3456,VALID,189,VALID,0,
2000-03-04, 01:36:00,VALID,0,VALID,87.494,VALID,0.0169808,VALID,18.2969,VALID,176,VALID,0,
2000-03-04, 01:37:00,VALID,0,VALID,87.3274,VALID,0,VALID,18.2296,VALID,151,VALID,0,
2000-03-04, 01:38:00,VALID,0,VALID,87.6428,VALID,0,VALID,18.1329,VALID,151,VALID,0,
2000-03-04, 01:39:00,VALID,0,VALID,88.4337,VALID,0.0849042,VALID,18.019,VALID,151,VALID,0,
2000-03-04, 01:40:00,VALID,0,VALID,89.0034,VALID,0,VALID,17.9452,VALID,151,VALID,0,
2000-03-04, 01:41:00,VALID,0,VALID,89.2412,VALID,0,VALID,17.9005,VALID,151,VALID,0,
2000-03-04, 01:42:00,VALID,0,VALID,88.9475,VALID,-0.0169808,VALID,17.8811,VALID,151,VALID,0,
2000-03-04, 01:43:00,VALID,0,VALID,89.1217,VALID,-0.0169808,VALID,17.8336,VALID,151,VALID,0,
2000-03-04, 01:44:00,VALID,0,VALID,89.6214,VALID,-0.0169808,VALID,17.7718,VALID,151,VALID,0,
2000-03-04, 01:45:00,VALID,0,VALID,89.746,VALID,-0.0509425,VALID,17.7432,VALID,147,VALID,0,
2000-03-04, 01:46:00,VALID,0,VALID,89.526,VALID,-0.0169808,VALID,17.6583,VALID,138,VALID,0,
2000-03-04, 01:47:00,VALID,0,VALID,89.994,VALID,-0.0339617,VALID,17.5329,VALID,135,VALID,0,
2000-03-04, 01:48:00,VALID,0,VALID,90.9413,VALID,-0.0169808,VALID,17.4842,VALID,135,VALID,0,
2000-03-04, 01:49:00,VALID,0,VALID,90.6921,VALID,-0.0679233,VALID,17.4815,VALID,135,VALID,0,
2000-03-04, 01:50:00,VALID,0,VALID,90.982,VALID,-0.0169808,VALID,17.4683,VALID,135,VALID,0,
2000-03-04, 01:51:00,VALID,0,VALID,91.2834,VALID,-0.0169808,VALID,17.4978,VALID,135,VALID,0,
2000-03-04, 01:52:00,VALID,0,VALID,91.1779,VALID,-0.0339617,VALID,17.5329,VALID,135,VALID,0,
2000-03-04, 01:53:00,VALID,0,VALID,90.4276,VALID,0,VALID,17.6108,VALID,135,VALID,0,
2000-03-04, 01:54:00,VALID,0,VALID,90.1886,VALID,-0.0169808,VALID,17.6431,VALID,135,VALID,0,
2000-03-04, 01:55:00,VALID,0,VALID,90.2966,VALID,-0.0169808,VALID,17.6687,VALID,134,VALID,0,
2000-03-04, 01:56:00,VALID,0,VALID,90.2509,VALID,-0.0679233,VALID,17.7208,VALID,120,VALID,0.127003,
2000-03-04, 01:57:00,VALID,0,VALID,89.9291,VALID,-0.0339617,VALID,17.8209,VALID,116,VALID,0.596012,
2000-03-04, 01:58:00,VALID,0,VALID,89.1331,VALID,-0.0509425,VALID,17.8885,VALID,134,VALID,0.459135,
2000-03-04, 01:59:00,VALID,0,VALID,89.0072,VALID,0,VALID,17.8788,VALID,143,VALID,0.154605,
2000-03-04, 02:00:00,VALID,0,VALID,89.2755,VALID,-0.0339617,VALID,17.8689,VALID,144,VALID,0.184005,
2000-03-04, 02:01:00,VALID,0,VALID,89.2794,VALID,-0.0169808,VALID,17.8947,VALID,144,VALID,0.00477431,
2000-03-04, 02:02:00,VALID,0,VALID,89.3824,VALID,-0.0339617,VALID,17.9078,VALID,137,VALID,0,
2000-03-04, 02:03:00,VALID,0,VALID,88.9538,VALID,-0.0169808,VALID,17.9044,VALID,120,VALID,0,
2000-03-04, 02:04:00,VALID,0,VALID,88.9513,VALID,0,VALID,17.8949,VALID,115,VALID,0,
2000-03-04, 02:05:01,VALID,0,VALID,89.114,VALID,-0.0169808,VALID,17.8592,VALID,115,VALID,0,
2000-03-04, 02:06:00,VALID,0,VALID,89.4218,VALID,0,VALID,17.8045,VALID,113,VALID,0.3,
2000-03-04, 02:07:00,VALID,0,VALID,90.4174,VALID,-0.0339617,VALID,17.7303,VALID,111,VALID,0.560238,
2000-03-04, 02:08:00,VALID,0,VALID,90.4759,VALID,-0.0169808,VALID,17.7335,VALID,103,VALID,0.355674,
2000-03-04, 02:09:00,VALID,0,VALID,89.9495,VALID,-0.0169808,VALID,17.7658,VALID,105,VALID,0.399282,
2000-03-04, 02:10:00,VALID,0,VALID,90.1021,VALID,-0.0169808,VALID,17.8015,VALID,106,VALID,0.579814,
2000-03-04, 02:11:00,VALID,0,VALID,89.6812,VALID,-0.0509425,VALID,17.8536,VALID,112,VALID,0.411719,
2000-03-04, 02:12:00,VALID,0,VALID,89.6964,VALID,-0.0169808,VALID,17.885,VALID,114,VALID,0.142228,
2000-03-04, 02:13:00,VALID,0,VALID,89.4358,VALID,-0.0169808,VALID,17.9399,VALID,114,VALID,0.177015,
2000-03-04, 02:14:00,VALID,0,VALID,89.0683,VALID,-0.0169808,VALID,18.0047,VALID,114,VALID,0.346554,
2000-03-04, 02:15:00,VALID,0,VALID,88.8076,VALID,0,VALID,18.043,VALID,114,VALID,0.321957,
2000-03-04, 02:16:01,VALID,0,VALID,88.9436,VALID,0,VALID,18.0723,VALID,114,VALID,0.146793,
2000-03-04, 02:17:00,VALID,0,VALID,88.8635,VALID,0,VALID,18.0753,VALID,114,VALID,0.194444,
2000-03-04, 02:18:00,VALID,0,VALID,88.6766,VALID,-0.0169808,VALID,18.0951,VALID,114,VALID,0.243421,
2000-03-04, 02:19:00,VALID,0,VALID,89.0492,VALID,-0.0849042,VALID,18.0889,VALID,102,VALID,0.484961,
2000-03-04, 02:20:00,VALID,0,VALID,89.0301,VALID,-0.0169808,VALID,18.0852,VALID,91,VALID,0.0907452,
2000-03-04, 02:21:00,VALID,0,VALID,88.9106,VALID,0,VALID,18.0787,VALID,91,VALID,0,
2000-03-04, 02:22:00,VALID,0,VALID,88.7224,VALID,-0.0509425,VALID,18.0787,VALID,109,VALID,0.0384766,
2000-03-04, 02:23:00,VALID,0,VALID,89.1636,VALID,-0.0339617,VALID,18.079,VALID,165,VALID,0.348273,
2000-03-04, 02:24:00,VALID,0,VALID,89.1382,VALID,0,VALID,18.0979,VALID,145,VALID,0.0754523,
2000-03-04, 02:25:00,VALID,0,VALID,89.0556,VALID,-0.0169808,VALID,18.1334,VALID,121,VALID,0,
2000-03-04, 02:26:00,VALID,0,VALID,88.9068,VALID,0,VALID,18.156,VALID,116,VALID,0,
2000-03-04, 02:27:01,VALID,0,VALID,89.2056,VALID,-0.0169808,VALID,18.2049,VALID,101,VALID,0,
2000-03-04, 02:28:00,VALID,0,VALID,88.964,VALID,-0.0509425,VALID,18.2794,VALID,105,VALID,0.0679087,
2000-03-04, 02:29:00,VALID,0,VALID,88.4973,VALID,-0.0679233,VALID,18.3696,VALID,107,VALID,0.601563,
2000-03-04, 02:30:00,VALID,0,VALID,88.1146,VALID,-0.0339617,VALID,18.4138,VALID,109,VALID,0.410857,
2000-03-04, 02:31:00,VALID,0,VALID,88.1235,VALID,-0.0509425,VALID,18.4664,VALID,108,VALID,0.511924,
2000-03-04, 02:32:00,VALID,0,VALID,88.0027,VALID,-0.0169808,VALID,18.502,VALID,108,VALID,0.358964,
2000-03-04, 02:33:00,VALID,0,VALID,88.2608,VALID,-0.0339617,VALID,18.5015,VALID,108,VALID,0.266276,
2000-03-04, 02:34:00,VALID,0,VALID,88.3333,VALID,-0.0169808,VALID,18.5176,VALID,108,VALID,0,
2000-03-04, 02:35:00,VALID,0,VALID,88.0116,VALID,-0.0169808,VALID,18.5598,VALID,108,VALID,0,
2000-03-04, 02:36:00,VALID,0,VALID,87.5207,VALID,-0.0509425,VALID,18.5691,VALID,108,VALID,0,
2000-03-04, 02:37:00,VALID,0,VALID,88.0332,VALID,-0.0339617,VALID,18.5691,VALID,108,VALID,0,
2000-03-04, 02:38:01,VALID,0,VALID,88.0828,VALID,-0.0509425,VALID,18.5402,VALID,108,VALID,0,
2000-03-04, 02:39:00,VALID,0,VALID,88.5698,VALID,-0.0509425,VALID,18.5045,VALID,111,VALID,0.00904605,
2000-03-04, 02:40:00,VALID,0,VALID,88.6105,VALID,-0.0169808,VALID,18.4985,VALID,111,VALID,0.0877878,
2000-03-04, 02:41:00,VALID,0,VALID,88.7466,VALID,-0.0509425,VALID,18.4761,VALID,106,VALID,0.185389,
2000-03-04, 02:42:00,VALID,0,VALID,88.7555,VALID,-0.0849042,VALID,18.4653,VALID,106,VALID,0.278927,
2000-03-04, 02:43:00,VALID,0,VALID,88.833,VALID,-0.0509425,VALID,18.4687,VALID,106,VALID,0.264453,
2000-03-04, 02:44:00,VALID,0,VALID,88.7644,VALID,-0.0339617,VALID,18.4461,VALID,106,VALID,0.15605,
2000-03-04, 02:45:00,VALID,0,VALID,88.9958,VALID,-0.0509425,VALID,18.4205,VALID,98,VALID,0.0573602,
2000-03-04, 02:46:00,VALID,0,VALID,88.6563,VALID,-0.0339617,VALID,18.4136,VALID,73,VALID,0.288261,
2000-03-04, 02:47:00,VALID,0,VALID,88.992,VALID,-0.0509425,VALID,18.4141,VALID,74,VALID,0.325247,
2000-03-04, 02:48:01,VALID,0,VALID,88.861,VALID,-0.0169808,VALID,18.3947,VALID,74,VALID,0.214638,
2000-03-04, 02:49:01,VALID,0,VALID,88.7758,VALID,-0.0339617,VALID,18.3197,VALID,84,VALID,0.385634,
2000-03-04, 02:50:00,VALID,0,VALID,89.4383,VALID,-0.0339617,VALID,18.1943,VALID,87,VALID,0.393914,
2000-03-04, 02:51:00,VALID,0,VALID,90.4276,VALID,-0.0849042,VALID,18.1041,VALID,86,VALID,0.181445,
2000-03-04, 02:52:00,VALID,0,VALID,89.9075,VALID,-0.0339617,VALID,18.043,VALID,104,VALID,0.374599,
2000-03-04, 02:53:00,VALID,0,VALID,89.6456,VALID,-0.0339617,VALID,17.9328,VALID,104,VALID,0.380701,
2000-03-04, 02:54:00,VALID,0,VALID,90.968,VALID,-0.0339617,VALID,17.8161,VALID,101,VALID,0.225586,
2000-03-04, 02:55:00,VALID,0,VALID,91.2681,VALID,0,VALID,17.7651,VALID,101,VALID,0.0384457,
2000-03-04, 02:56:00,VALID,0,VALID,91.7793,VALID,-0.0339617,VALID,17.7165,VALID,101,VALID,0.146382,
2000-03-04, 02:57:00,VALID,0,VALID,91.6992,VALID,-0.0509425,VALID,17.6943,VALID,102,VALID,0.0221706,
2000-03-04, 02:58:00,VALID,0,VALID,91.7717,VALID,-0.0339617,VALID,17.6583,VALID,102,VALID,0,
2000-03-04, 02:59:01,VALID,0,VALID,92.0247,VALID,-0.0169808,VALID,17.6291,VALID,102,VALID,0,
2000-03-04, 03:00:01,VALID,0,VALID,92.0337,VALID,-0.0339617,VALID,17.6035,VALID,102,VALID,0,
2000-03-04, 03:01:00,VALID,0,VALID,91.8277,VALID,0,VALID,17.5712,VALID,102,VALID,0,
2000-03-04, 03:02:00,VALID,0,VALID,91.6954,VALID,0,VALID,17.5454,VALID,97,VALID,0,
2000-03-04, 03:03:00,VALID,0,VALID,92.4139,VALID,-0.0509425,VALID,17.5938,VALID,91,VALID,0,
2000-03-04, 03:04:00,VALID,0,VALID,92.3579,VALID,-0.0679233,VALID,17.6459,VALID,36,VALID,0.0370066,
2000-03-04, 03:05:00,VALID,0,VALID,91.5301,VALID,-0.0849042,VALID,17.6982,VALID,16,VALID,0,
2000-03-04, 03:06:00,VALID,0,VALID,90.6718,VALID,-0.0509425,VALID,17.6874,VALID,16,VALID,0,
2000-03-04, 03:07:00,VALID,0,VALID,89.4383,VALID,-0.0679233,VALID,17.6519,VALID,16,VALID,0,
2000-03-04, 03:08:00,VALID,0,VALID,89.5934,VALID,-0.0339617,VALID,17.62,VALID,16,VALID,0,
2000-03-04, 03:09:00,VALID,0,VALID,90.6489,VALID,-0.0339617,VALID,17.5742,VALID,16,VALID,0,
2000-03-04, 03:10:00,VALID,0,VALID,91.5543,VALID,-0.0169808,VALID,17.5288,VALID,37,VALID,0,
2000-03-04, 03:11:00,VALID,0,VALID,92.3719,VALID,-0.0509425,VALID,17.4644,VALID,153,VALID,0,
2000-03-04, 03:12:00,VALID,0,VALID,92.7585,VALID,-0.0509425,VALID,17.4294,VALID,153,VALID,0,
2000-03-04, 03:13:00,VALID,0,VALID,93.0751,VALID,-0.0509425,VALID,17.4068,VALID,153,VALID,0,
2000-03-04, 03:14:00,VALID,0,VALID,92.836,VALID,-0.0169808,VALID,17.4035,VALID,153,VALID,0,
2000-03-04, 03:15:00,VALID,0,VALID,92.1545,VALID,-0.0509425,VALID,17.3908,VALID,153,VALID,0,
2000-03-04, 03:16:00,VALID,0,VALID,91.5555,VALID,-0.0169808,VALID,17.3424,VALID,153,VALID,0,
2000-03-04, 03:17:00,VALID,0,VALID,92.5308,VALID,-0.0169808,VALID,17.3104,VALID,153,VALID,0,
2000-03-04, 03:18:00,VALID,0,VALID,91.2758,VALID,-0.0679233,VALID,17.2262,VALID,153,VALID,0,
2000-03-04, 03:19:00,VALID,0,VALID,91.5644,VALID,-0.0849042,VALID,17.1423,VALID,153,VALID,0,
2000-03-04, 03:20:01,VALID,0,VALID,92.2231,VALID,-0.0169808,VALID,17.0779,VALID,153,VALID,0,
2000-03-04, 03:21:00,VALID,0,VALID,92.8081,VALID,-0.0509425,VALID,17.0265,VALID,153,VALID,0,
2000-03-04, 03:22:00,VALID,0,VALID,93.0993,VALID,-0.0169808,VALID,16.965,VALID,153,VALID,0,
2000-03-04, 03:23:00,VALID,0,VALID,93.7885,VALID,-0.0169808,VALID,16.926,VALID,173,VALID,0.00839844,
2000-03-04, 03:24:00,VALID,0,VALID,95.4123,VALID,-0.0679233,VALID,16.9359,VALID,180,VALID,0.0765224,
2000-03-04, 03:25:00,VALID,0,VALID,95.5153,VALID,-0.0339617,VALID,16.9327,VALID,179,VALID,0,
2000-03-04, 03:26:00,VALID,0,VALID,95.2979,VALID,-0.0339617,VALID,16.9004,VALID,179,VALID,0,
2000-03-04, 03:27:00,VALID,0,VALID,95.879,VALID,-0.0509425,VALID,16.8972,VALID,179,VALID,0.0674342,
2000-03-04, 03:28:00,VALID,0,VALID,95.57,VALID,-0.0339617,VALID,16.8718,VALID,179,VALID,0.00123355,
2000-03-04, 03:29:00,VALID,0,VALID,95.9311,VALID,-0.0339617,VALID,16.8488,VALID,179,VALID,0,
2000-03-04, 03:30:00,VALID,0,VALID,95.7747,VALID,-0.0339617,VALID,16.8296,VALID,179,VALID,0,
2000-03-04, 03:31:00,VALID,0,VALID,96.5733,VALID,-0.0169808,VALID,16.8292,VALID,179,VALID,0,
2000-03-04, 03:32:00,VALID,0,VALID,97.1519,VALID,-0.0339617,VALID,16.8748,VALID,179,VALID,0.0324519,
2000-03-04, 03:33:00,VALID,0,VALID,96.5644,VALID,-0.0509425,VALID,16.8492,VALID,179,VALID,0.191817,
2000-03-04, 03:34:00,VALID,0,VALID,95.8269,VALID,-0.0679233,VALID,16.7877,VALID,179,VALID,0.0687099,
2000-03-04, 03:35:00,VALID,0,VALID,95.2686,VALID,-0.0509425,VALID,16.707,VALID,155,VALID,0.253701,
2000-03-04, 03:36:00,VALID,0,VALID,96.8988,VALID,-0.0509425,VALID,16.7623,VALID,124,VALID,0.785979,
2000-03-04, 03:37:00,VALID,0,VALID,97.5079,VALID,-0.0339617,VALID,16.8234,VALID,119,VALID,0.642578,
2000-03-04, 03:38:00,VALID,0,VALID,97.8195,VALID,-0.0169808,VALID,16.898,VALID,118,VALID,0.512336,
2000-03-04, 03:39:00,VALID,0,VALID,97.8805,VALID,-0.0679233,VALID,16.9361,VALID,108,VALID,0.377734,
2000-03-04, 03:40:00,VALID,0,VALID,97.6084,VALID,-0.0339617,VALID,16.9368,VALID,119,VALID,0.0989583,
2000-03-04, 03:41:00,VALID,0,VALID,97.2193,VALID,-0.0169808,VALID,16.9071,VALID,120,VALID,0.359797,
2000-03-04, 03:42:00,VALID,0,VALID,96.5695,VALID,-0.0169808,VALID,16.8757,VALID,121,VALID,0.380664,
2000-03-04, 03:43:00,VALID,0,VALID,96.9484,VALID,-0.0849042,VALID,16.8882,VALID,122,VALID,0.020148,
2000-03-04, 03:44:00,VALID,0,VALID,97.321,VALID,-0.0509425,VALID,16.92,VALID,133,VALID,0,
2000-03-04, 03:45:00,VALID,0,VALID,97.5867,VALID,-0.0169808,VALID,16.9755,VALID,152,VALID,0,
2000-03-04, 03:46:00,VALID,0,VALID,97.3629,VALID,-0.0509425,VALID,16.9783,VALID,152,VALID,0,
2000-03-04, 03:47:00,VALID,0,VALID,97.3273,VALID,-0.0509425,VALID,16.985,VALID,160,VALID,0,
2000-03-04, 03:48:00,VALID,0,VALID,97.279,VALID,-0.0339617,VALID,17.0181,VALID,161,VALID,0,
2000-03-04, 03:49:00,VALID,0,VALID,96.4919,VALID,-0.0339617,VALID,16.9368,VALID,151,VALID,0,
2000-03-04, 03:50:00,VALID,0,VALID,96.3889,VALID,-0.0679233,VALID,16.9043,VALID,143,VALID,0,
2000-03-04, 03:51:00,VALID,0,VALID,97.3744,VALID,-0.0169808,VALID,16.9658,VALID,134,VALID,0,
2000-03-04, 03:52:00,VALID,0,VALID,97.2765,VALID,-0.0339617,VALID,16.9428,VALID,135,VALID,0,
2000-03-04, 03:53:00,VALID,0,VALID,97.3858,VALID,-0.0169808,VALID,16.9691,VALID,135,VALID,0,
2000-03-04, 03:54:00,VALID,0,VALID,97.6719,VALID,-0.0339617,VALID,17.0041,VALID,148,VALID,0,
2000-03-04, 03:55:00,VALID,0,VALID,97.2676,VALID,-0.0509425,VALID,16.9917,VALID,151,VALID,0,
2000-03-04, 03:56:00,VALID,0,VALID,97.0807,VALID,0.0169808,VALID,16.9846,VALID,150,VALID,0,
2000-03-04, 03:57:00,VALID,0,VALID,97.5893,VALID,0.0339617,VALID,17.0584,VALID,134,VALID,0.0316723,
2000-03-04, 03:58:00,VALID,0,VALID,97.4837,VALID,0.0339617,VALID,17.0842,VALID,164,VALID,0.0958984,
2000-03-04, 03:59:00,VALID,0,VALID,97.4927,VALID,0.0509425,VALID,17.1038,VALID,218,VALID,0.141859,
2000-03-04, 04:00:00,VALID,0,VALID,97.2142,VALID,0.0339617,VALID,17.1294,VALID,215,VALID,0.00123355,
2000-03-04, 04:01:00,VALID,0,VALID,96.6814,VALID,0.0339617,VALID,17.1199,VALID,215,VALID,0,
2000-03-04, 04:02:00,VALID,0,VALID,93.7427,VALID,0.0169808,VALID,17.0265,VALID,130,VALID,0.534417,
2000-03-04, 04:03:00,VALID,0,VALID,92.3388,VALID,0,VALID,16.826,VALID,125,VALID,0.213477,
2000-03-04, 04:04:00,VALID,0,VALID,95.1516,VALID,0.0509425,VALID,16.7933,VALID,116,VALID,0.592548,
2000-03-04, 04:05:00,VALID,0,VALID,95.9133,VALID,0.0339617,VALID,16.8098,VALID,110,VALID,0.162212,
2000-03-04, 04:06:00,VALID,0,VALID,96.0939,VALID,0.0849042,VALID,16.8298,VALID,124,VALID,0,
2000-03-04, 04:07:00,VALID,0,VALID,95.3729,VALID,0.0679233,VALID,16.807,VALID,146,VALID,0.407689,
2000-03-04, 04:08:00,VALID,0,VALID,93.0001,VALID,0.0339617,VALID,16.71,VALID,115,VALID,0.393503,
2000-03-04, 04:09:00,VALID,0,VALID,93.7618,VALID,0,VALID,16.6547,VALID,156,VALID,0.0983073,